Regional Weather Roundup
Issued by NWS

Home | Current Version | Previous Version | Text Only | Print | Product List | Glossary Off
Versions: 1 2 3 4 5 6 7 8 9 10 11 12 13 14 15 16 17 18 19 20 21 22 23 24 25 26 27 28 29 30 31 32 33 34 35 36 37 38 39 40 41 42 43 44 45 46 47 48 49 50

000
ASUS45 KSLC 280510
RWRUT

UTAH REGIONAL WEATHER ROUNDUP
NATIONAL WEATHER SERVICE SALT LAKE CITY UT
1000 PM MST FRI FEB 27 2015

UTZ001>011-023>025-280600-

NORTHERN UTAH

CITY           SKY/WX    TMP DP  RH WIND       PRES   REMARKS
BRIGHAM CITY   PTCLDY    29  25  84 CALM      29.72S
HILL AFB       CLEAR     33  20  58 E9        29.70S WCI  26
LOGAN          CLEAR     29  25  85 NW5       29.73S WCI  24
OGDEN          CLEAR     31  22  69 S7        29.70S WCI  24
PROVO AIRPORT  PTCLDY    30  25  80 S6        29.71S WCI  24
SALT LAKE CITY MOCLDY    33  25  72 S7        29.70S WCI  27
VERNAL         CLOUDY    32  21  64 NW8       29.77R WCI  25
WENDOVER       MOCLDY    37  27  65 N21       29.68R WCI  27
HEBER CITY     CLEAR     25  19  80 S3        29.72R
WEST JORDAN    CLEAR     28  25  86 CALM      29.71R

$$

UTZ012>022-026-027-280600-

SOUTHERN/CENTRAL UTAH

CITY           SKY/WX    TMP DP  RH WIND       PRES   REMARKS
BLANDING       CLOUDY    30  29  96 NE3       29.84F
BRYCE CANYON   FOG       12  10  92 S5        29.72R VSB 1/4 WCI   4
CEDAR CITY     MOCLDY    34  23  64 S5        29.64S WCI  30
DELTA          CLEAR     33  22  64 NE9       29.65F WCI  25
HANKSVILLE     PTCLDY    34  30  86 CALM      29.77R
MILFORD        PTCLDY    28  14  55 S3        29.65R
MOAB/CYNLANDS  CLOUDY    37  25  61 NE6       29.74S WCI  32
PRICE          MOCLDY    26  17  68 CALM      29.74R
ST GEORGE      MOCLDY    50  32  50 E9        29.65F
KANAB            N/A     32  32 100 E9        29.74S WCI  24

$$

REGIONAL REPORTS     COLORADO/ARIZONA

CITY           SKY/WX    TMP DP  RH WIND       PRES   REMARKS
CRAIG, CO        N/A     19  12  74 NE3       29.78R
GRAND JUNCTION CLEAR     30  26  85 SE13      29.77S WCI  20
RIFLE          CLEAR     27  19  72 SE6       29.78R WCI  20
MONTROSE       PTCLDY    20  16  84 SE8       29.80R WCI  10
CORTEZ         LGT SNOW  31  29  92 CALM      29.78R FOG
PAGE, AZ       CLOUDY    40  35  83 CALM      29.73R
GRAND CANYON   CLOUDY    33  31  92 CALM      29.73S
KINGMAN        MOCLDY    51  30  44 S3        29.63F
FLAGSTAFF      CLOUDY    38  24  57 W7        29.75R WCI  33

$$

REGIONAL REPORTS    NEVADA/IDAHO/WYOMING

CITY           SKY/WX    TMP DP  RH WIND       PRES   REMARKS
LAS VEGAS, NV  PTCLDY    60  37  42 S15G24    29.52S
ELY            CLOUDY    30  25  81 CALM      29.63R
ELKO           LGT SNOW  34  31  88 SW3       29.62R FOG
POCATELLO, ID  CLEAR     24  21  88 NE3       29.74R
BURLEY         MOCLDY    33  25  72 NE12      29.68S WCI  24
EVANSTON, WY   PTCLDY    24  18  77 CALM      29.71R
ROCK SPRINGS   PTCLDY    22  14  71 S5        29.74R WCI  16

$$


USA.gov is the U.S. government's official web portal to all federal, state and local government web resources and services.